COSMOS 2409

导读

COSMOS 2409是前苏联解体后独立国家联合体于2004年9月23日发射的一颗宇宙(Cosmos)系列卫星,宇宙系列是苏联/俄罗斯规模最大、历史最悠久的卫星家族,编号超2450颗,绝大多数承担军用任务。作为军用低轨卫星,其继承了宇宙系列卫星保密性强的特点,主要服务于航天军事侦察任务,目前已完成设计在轨任务,是俄罗斯航天军用卫星体系的重要组成。

基本信息
目录编号:
28420
目录名称:
COSMOS 2409
国际标识:
2004-037B
轨道中心:
EARTH
卫星名称:
COSMOS 2409
卫星全名:
--
卫星状态:
在轨 (已飞行8026 天)
发射日期:
2004-09-23 UTC
国别 :
俄罗斯(独联体) (CIS)
星等 :
--
该卫星已列入 空间交会检测服务 Space Conjunction Data Service (SCDS) ,当前飞行风险评估等级: 无高风险
轨道信息
数据来源 国际轨道数据 AOE轨道数据
星历时间 2026-09-14T07:38:24+0800
5小时前
查看轨道信息
2026-09-12T23:00:00+0800
1天前
查看轨道信息
半长轴 7862.248km 7862.267km
偏心率 0.0014846 0.0014573
轨道倾角 82.479° 82.482°
近地点辐角 85.940° 87.163°
升交点赤经 273.498° 274.352°
平近点角 274.338° 298.965°
近地点 1472.438km 1472.672km
远地点 1495.784km 1495.588km
周期 115.632分钟 115.633分钟
每日圈数 12.453249 12.453205
详细信息
使用方式:
暂无
2D轨道图
3D轨道图
轨道高度分析图
轨道倾角分析图
轨道综合分析图
查看轨道综合分析图
与全量物体交会距离演化趋势 订阅飞行安全评估服务
与全量物体交会风险概率演化趋势 订阅飞行安全评估服务